| time (UTC) | temp F | wind direction | speed MPH | gust MPH | rain 1hr in | rain 24hr in | rain mn in | humidity % | barometer mb |
| 20260831000630 | 80 | 291 | 3.0 | 12.0 | 0.00 | 0.11 | 0.07 | 37 | 1016.9 |
| 20260831000138 | 80 | 294 | 3.0 | 12.0 | 0.00 | 0.11 | 0.07 | 37 | 1017.0 |
| 20260830235619 | 80 | 311 | 1.0 | 8.0 | 0.00 | 0.11 | 0.07 | 37 | 1017.1 |
| 20260830235122 | 80 | 288 | 4.0 | 8.0 | 0.00 | 0.11 | 0.07 | 36 | 1017.2 |
| 20260830234630 | 81 | 279 | 2.0 | 7.0 | 0.00 | 0.11 | 0.07 | 38 | 1017.2 |
| 20260830234112 | 81 | 234 | 4.0 | 7.0 | 0.00 | 0.11 | 0.07 | 37 | 1017.2 |
| 20260830233615 | 81 | 288 | 1.0 | 7.0 | 0.00 | 0.11 | 0.07 | 39 | 1017.2 |
| 20260830233121 | 81 | 307 | 4.0 | 8.0 | 0.00 | 0.11 | 0.07 | 39 | 1017.3 |
| 20260830232622 | 80 | 311 | 4.0 | 10.0 | 0.00 | 0.11 | 0.07 | 39 | 1017.3 |
| 20260830232132 | 80 | 281 | 3.0 | 8.0 | 0.00 | 0.11 | 0.07 | 41 | 1017.2 |
| 20260830231613 | 80 | 271 | 3.0 | 7.0 | 0.00 | 0.11 | 0.07 | 41 | 1017.3 |
| 20260830231140 | 81 | 273 | 3.0 | 7.0 | 0.00 | 0.11 | 0.07 | 41 | 1017.2 |
| 20260830230621 | 81 | 274 | 2.0 | 5.0 | 0.00 | 0.12 | 0.07 | 40 | 1017.2 |
| 20260830230129 | 80 | 290 | 1.0 | 6.0 | 0.00 | 0.12 | 0.07 | 41 | 1017.2 |
| 20260830225629 | 79 | 236 | 4.0 | 7.0 | 0.00 | 0.12 | 0.07 | 40 | 1017.2 |
| 20260830225111 | 80 | 313 | 1.0 | 9.0 | 0.00 | 0.12 | 0.07 | 40 | 1017.3 |
| 20260830224639 | 80 | 310 | 5.0 | 9.0 | 0.00 | 0.12 | 0.07 | 40 | 1017.2 |
| 20260830224120 | 81 | 298 | 2.0 | 5.0 | 0.00 | 0.12 | 0.07 | 38 | 1017.2 |
| 20260830223629 | 81 | 319 | 2.0 | 4.0 | 0.00 | 0.12 | 0.07 | 38 | 1017.2 |
| 20260830223149 | 81 | 83 | 0.0 | 6.0 | 0.00 | 0.12 | 0.07 | 39 | 1017.2 |
| 20260830222637 | 81 | 290 | 3.0 | 7.0 | 0.01 | 0.12 | 0.07 | 38 | 1017.4 |
| 20260830222119 | 81 | 260 | 2.0 | 4.0 | 0.01 | 0.12 | 0.07 | 40 | 1017.4 |
| 20260830221642 | 80 | 141 | 1.0 | 2.0 | 0.01 | 0.12 | 0.07 | 39 | 1017.3 |
| 20260830221149 | 79 | 282 | 1.0 | 3.0 | 0.01 | 0.12 | 0.07 | 40 | 1017.5 |
| 20260830220636 | 79 | 232 | 1.0 | 4.0 | 0.01 | 0.12 | 0.07 | 42 | 1017.7 |
| 20260830220116 | 79 | 267 | 1.0 | 4.0 | 0.01 | 0.12 | 0.07 | 44 | 1017.6 |
| 20260830215624 | 79 | 262 | 1.0 | 5.0 | 0.01 | 0.12 | 0.07 | 44 | 1017.4 |
| 20260830215125 | 79 | 173 | 2.0 | 5.0 | 0.01 | 0.12 | 0.07 | 44 | 1017.6 |
| 20260830214655 | 79 | 139 | 1.0 | 5.0 | 0.01 | 0.12 | 0.07 | 45 | 1017.6 |
| 20260830214135 | 80 | 132 | 2.0 | 5.0 | 0.01 | 0.12 | 0.07 | 43 | 1017.6 |
| 20260830213624 | 80 | 276 | 2.0 | 5.0 | 0.01 | 0.12 | 0.07 | 41 | 1017.6 |
| 20260830213124 | 79 | 233 | 1.0 | 5.0 | 0.01 | 0.12 | 0.07 | 41 | 1017.7 |
| 20260830212626 | 80 | 268 | 2.0 | 4.0 | 0.00 | 0.11 | 0.06 | 42 | 1017.7 |
| 20260830212134 | 79 | 156 | 1.0 | 3.0 | 0.00 | 0.11 | 0.06 | 43 | 1017.8 |
| 20260830211615 | 78 | 245 | 0.0 | 2.0 | 0.00 | 0.11 | 0.06 | 46 | 1017.9 |
| 20260830211116 | 78 | 271 | 1.0 | 3.0 | 0.00 | 0.11 | 0.06 | 45 | 1018.0 |
| 20260830210616 | 76 | 262 | 1.0 | 3.0 | 0.00 | 0.11 | 0.06 | 46 | 1018.0 |
| 20260830210123 | 76 | 36 | 0.0 | 1.0 | 0.00 | 0.11 | 0.06 | 47 | 1018.1 |
| 20260830205625 | 76 | 37 | 0.0 | 2.0 | 0.00 | 0.11 | 0.06 | 47 | 1018.1 |
| 20260830205135 | 76 | 37 | 1.0 | 2.0 | 0.01 | 0.11 | 0.06 | 45 | 1018.1 |
| 20260830204637 | 77 | 306 | 0.0 | 4.0 | 0.02 | 0.11 | 0.06 | 44 | 1018.0 |
| 20260830204125 | 77 | 56 | 1.0 | 4.0 | 0.02 | 0.11 | 0.06 | 47 | 1018.3 |
| 20260830203627 | 76 | 311 | 0.0 | 2.0 | 0.02 | 0.11 | 0.06 | 50 | 1018.2 |
| 20260830203129 | 75 | 345 | 1.0 | 4.0 | 0.02 | 0.11 | 0.06 | 51 | 1018.3 |
| 20260830202639 | 75 | 329 | 1.0 | 4.0 | 0.02 | 0.11 | 0.06 | 49 | 1018.3 |
| 20260830202147 | 75 | 355 | 0.0 | 4.0 | 0.02 | 0.11 | 0.06 | 50 | 1018.3 |
| 20260830201642 | 75 | 340 | 1.0 | 3.0 | 0.02 | 0.11 | 0.06 | 52 | 1018.3 |
| 20260830201129 | 74 | 70 | 0.0 | 3.0 | 0.02 | 0.11 | 0.06 | 56 | 1018.4 |
| 20260830200615 | 74 | 314 | 0.0 | 2.0 | 0.02 | 0.11 | 0.06 | 64 | 1018.4 |
| 20260830200115 | 74 | 276 | 1.0 | 3.0 | 0.02 | 0.11 | 0.06 | 61 | 1018.4 |
| 20260830195623 | 74 | 284 | 2.0 | 5.0 | 0.02 | 0.11 | 0.06 | 63 | 1018.6 |
| 20260830195124 | 75 | 253 | 2.0 | 5.0 | 0.01 | 0.10 | 0.05 | 54 | 1018.5 |
| 20260830194634 | 76 | 281 | 3.0 | 5.0 | 0.00 | 0.09 | 0.04 | 51 | 1018.6 |
| 20260830194156 | 77 | 252 | 2.0 | 5.0 | 0.00 | 0.09 | 0.04 | 48 | 1018.5 |
| 20260830193616 | 77 | 319 | 1.0 | 5.0 | 0.00 | 0.09 | 0.04 | 50 | 1018.5 |
| 20260830193119 | 77 | 292 | 1.0 | 7.0 | 0.00 | 0.09 | 0.04 | 49 | 1018.4 |
| 20260830192619 | 78 | 283 | 3.0 | 7.0 | 0.00 | 0.09 | 0.04 | 46 | 1018.5 |
| 20260830192148 | 79 | 338 | 0.0 | 3.0 | 0.00 | 0.09 | 0.04 | 47 | 1018.5 |
| 20260830191636 | 79 | 100 | 1.0 | 5.0 | 0.00 | 0.09 | 0.04 | 47 | 1018.7 |
| 20260830191117 | 79 | 198 | 2.0 | 5.0 | 0.00 | 0.09 | 0.04 | 47 | 1018.7 |
| 20260830190618 | 78 | 194 | 1.0 | 4.0 | 0.00 | 0.09 | 0.04 | 49 | 1018.8 |
| 20260830190125 | 77 | 267 | 0.0 | 5.0 | 0.00 | 0.09 | 0.04 | 50 | 1018.8 |
| 20260830185611 | 77 | 268 | 1.0 | 6.0 | 0.00 | 0.09 | 0.04 | 50 | 1018.8 |
| 20260830185156 | 77 | 277 | 1.0 | 7.0 | 0.00 | 0.09 | 0.04 | 51 | 1018.9 |
| 20260830184617 | 77 | 293 | 3.0 | 7.0 | 0.00 | 0.09 | 0.04 | 51 | 1018.8 |
| 20260830184145 | 77 | 285 | 3.0 | 7.0 | 0.00 | 0.09 | 0.04 | 50 | 1018.8 |
| 20260830183626 | 76 | 283 | 2.0 | 4.0 | 0.00 | 0.09 | 0.04 | 51 | 1018.8 |
| 20260830183136 | 75 | 309 | 0.0 | 5.0 | 0.00 | 0.09 | 0.04 | 51 | 1018.9 |
| 20260830182618 | 75 | 13 | 2.0 | 5.0 | 0.00 | 0.09 | 0.04 | 50 | 1019.0 |
| 20260830182120 | 76 | 283 | 2.0 | 7.0 | 0.00 | 0.09 | 0.04 | 51 | 1019.0 |
| 20260830181622 | 75 | 279 | 4.0 | 7.0 | 0.00 | 0.09 | 0.04 | 52 | 1019.0 |
| 20260830181130 | 75 | 300 | 0.0 | 3.0 | 0.00 | 0.09 | 0.04 | 53 | 1018.9 |
| 20260830180657 | 74 | 335 | 1.0 | 4.0 | 0.00 | 0.22 | 0.04 | 52 | 1019.0 |
| 20260830180117 | 74 | 309 | 2.0 | 5.0 | 0.00 | 0.22 | 0.04 | 52 | 1019.1 |
| 20260830175618 | 74 | 319 | 2.0 | 5.0 | 0.00 | 0.22 | 0.04 | 53 | 1019.0 |
| 20260830175146 | 75 | 292 | 2.0 | 5.0 | 0.00 | 0.22 | 0.04 | 53 | 1019.1 |
| 20260830174634 | 74 | 274 | 2.0 | 5.0 | 0.00 | 0.22 | 0.04 | 55 | 1019.0 |
| 20260830174116 | 74 | 286 | 2.0 | 5.0 | 0.00 | 0.22 | 0.04 | 56 | 1019.0 |
| 20260830173618 | 74 | 271 | 0.0 | 4.0 | 0.00 | 0.22 | 0.04 | 55 | 1019.0 |
| 20260830173120 | 73 | 275 | 2.0 | 4.0 | 0.00 | 0.22 | 0.04 | 55 | 1019.0 |
| 20260830172649 | 74 | 285 | 2.0 | 4.0 | 0.00 | 0.22 | 0.04 | 56 | 1019.0 |
| 20260830172135 | 74 | 29 | 1.0 | 4.0 | 0.00 | 0.22 | 0.04 | 54 | 1019.0 |
| 20260830171617 | 74 | 211 | 1.0 | 3.0 | 0.00 | 0.22 | 0.04 | 54 | 1019.0 |
| 20260830171118 | 74 | 232 | 1.0 | 2.0 | 0.00 | 0.22 | 0.04 | 55 | 1019.0 |
| 20260830170620 | 74 | 172 | 1.0 | 4.0 | 0.00 | 0.47 | 0.04 | 56 | 1018.9 |
| 20260830170128 | 73 | 217 | 1.0 | 5.0 | 0.00 | 0.47 | 0.04 | 58 | 1018.9 |
| 20260830165657 | 72 | 302 | 1.0 | 4.0 | 0.00 | 0.47 | 0.04 | 59 | 1018.9 |
| 20260830165117 | 72 | 293 | 2.0 | 5.0 | 0.00 | 0.47 | 0.04 | 60 | 1018.9 |
| 20260830164619 | 73 | 255 | 1.0 | 4.0 | 0.00 | 0.47 | 0.04 | 61 | 1018.8 |
| 20260830164126 | 72 | 288 | 1.0 | 2.0 | 0.00 | 0.47 | 0.04 | 53 | 1018.7 |
| 20260830163627 | 72 | 74 | 0.0 | 2.0 | 0.00 | 0.47 | 0.04 | 54 | 1018.6 |
| 20260830163134 | 72 | 74 | 0.0 | 2.0 | 0.00 | 0.47 | 0.04 | 52 | 1018.6 |
| 20260830162616 | 72 | 138 | 1.0 | 3.0 | 0.00 | 0.47 | 0.04 | 53 | 1018.6 |
| 20260830162137 | 72 | 58 | 1.0 | 3.0 | 0.00 | 0.47 | 0.04 | 54 | 1018.6 |
| 20260830161625 | 72 | 250 | 0.0 | 3.0 | 0.00 | 0.47 | 0.04 | 55 | 1018.5 |
| 20260830161126 | 71 | 224 | 1.0 | 3.0 | 0.00 | 0.47 | 0.04 | 57 | 1018.4 |
| 20260830160636 | 71 | 215 | 0.0 | 2.0 | 0.00 | 0.47 | 0.04 | 57 | 1018.4 |
| 20260830160116 | 71 | 262 | 1.0 | 2.0 | 0.00 | 0.47 | 0.04 | 59 | 1018.5 |
| 20260830155625 | 70 | 269 | 0.0 | 1.0 | 0.00 | 0.47 | 0.04 | 60 | 1018.4 |
| 20260830155126 | 70 | 286 | 0.0 | 2.0 | 0.00 | 0.47 | 0.04 | 60 | 1018.4 |
| 20260830154627 | 70 | 145 | 0.0 | 2.0 | 0.00 | 0.47 | 0.04 | 62 | 1018.4 |
| 20260830154136 | 70 | 214 | 0.0 | 1.0 | 0.00 | 0.47 | 0.04 | 61 | 1018.4 |
| 20260830153615 | 70 | 190 | 0.0 | 1.0 | 0.00 | 0.47 | 0.04 | 60 | 1018.5 |
| 20260830153123 | 69 | 283 | 0.0 | 1.0 | 0.00 | 0.47 | 0.04 | 62 | 1018.3 |
| 20260830152624 | 68 | 283 | 0.0 | 1.0 | 0.00 | 0.47 | 0.04 | 64 | 1018.4 |
| 20260830152126 | 67 | 283 | 0.0 | 2.0 | 0.00 | 0.47 | 0.04 | 65 | 1018.4 |
| 20260830151633 | 67 | 283 | 0.0 | 2.0 | 0.00 | 0.47 | 0.04 | 65 | 1018.5 |
| 20260830151115 | 67 | 300 | 1.0 | 1.0 | 0.00 | 0.47 | 0.04 | 65 | 1018.5 |
| 20260830150617 | 67 | 300 | 1.0 | 1.0 | 0.00 | 0.67 | 0.04 | 64 | 1018.5 |
| 20260830150123 | 67 | 327 | 0.0 | 1.0 | 0.00 | 0.67 | 0.04 | 64 | 1018.5 |
| 20260830145625 | 66 | 327 | 0.0 | 1.0 | 0.00 | 0.67 | 0.04 | 66 | 1018.4 |
| 20260830145134 | 66 | 305 | 0.0 | 1.0 | 0.00 | 0.67 | 0.04 | 69 | 1018.5 |
| 20260830144615 | 66 | 85 | 0.0 | 1.0 | 0.00 | 0.67 | 0.04 | 71 | 1018.5 |
| 20260830144115 | 65 | 60 | 0.0 | 1.0 | 0.00 | 0.67 | 0.04 | 72 | 1018.6 |
| 20260830143616 | 64 | 60 | 0.0 | 1.0 | 0.00 | 0.67 | 0.04 | 71 | 1018.5 |
| 20260830143124 | 63 | 60 | 0.0 | 1.0 | 0.00 | 0.67 | 0.04 | 76 | 1018.5 |
| 20260830142626 | 62 | 60 | 0.0 | 2.0 | 0.00 | 0.67 | 0.04 | 76 | 1018.4 |
| 20260830142117 | 61 | 60 | 0.0 | 2.0 | 0.00 | 0.67 | 0.04 | 78 | 1018.4 |
| 20260830141617 | 61 | 129 | 0.0 | 1.0 | 0.00 | 0.67 | 0.04 | 79 | 1018.3 |
| 20260830141118 | 61 | 136 | 0.0 | 2.0 | 0.00 | 0.67 | 0.04 | 79 | 1018.2 |
| 20260830140626 | 61 | 278 | 0.0 | 2.0 | 0.00 | 0.67 | 0.04 | 78 | 1018.3 |
| 20260830140127 | 61 | 318 | 0.0 | 1.0 | 0.00 | 0.67 | 0.04 | 78 | 1018.2 |
| 20260830135636 | 61 | 302 | 0.0 | 2.0 | 0.00 | 0.67 | 0.04 | 79 | 1018.1 |
| 20260830135117 | 61 | 55 | 0.0 | 3.0 | 0.00 | 0.67 | 0.04 | 79 | 1018.0 |
| 20260830134618 | 62 | 138 | 0.0 | 3.0 | 0.00 | 0.67 | 0.04 | 76 | 1018.0 |
| 20260830134126 | 61 | 111 | 1.0 | 1.0 | 0.00 | 0.67 | 0.04 | 75 | 1018.0 |
| 20260830133627 | 61 | 111 | 0.0 | 1.0 | 0.00 | 0.67 | 0.04 | 80 | 1018.0 |
| 20260830133135 | 61 | 114 | 0.0 | 1.0 | 0.00 | 0.67 | 0.04 | 77 | 1017.9 |
| 20260830132617 | 61 | 114 | 0.0 | 1.0 | 0.01 | 0.67 | 0.04 | 81 | 1018.0 |
| 20260830132119 | 60 | 114 | 0.0 | 1.0 | 0.01 | 0.67 | 0.04 | 82 | 1017.9 |
| 20260830131620 | 60 | 114 | 0.0 | 1.0 | 0.01 | 0.67 | 0.04 | 83 | 1017.9 |
| 20260830131130 | 60 | 114 | 0.0 | 1.0 | 0.01 | 0.67 | 0.04 | 84 | 1017.9 |
| 20260830130614 | 60 | 114 | 0.0 | 1.0 | 0.01 | 0.67 | 0.04 | 84 | 1017.7 |
| 20260830130115 | 60 | 114 | 0.0 | 1.0 | 0.01 | 0.67 | 0.04 | 84 | 1017.7 |
| 20260830125625 | 60 | 118 | 0.0 | 1.0 | 0.01 | 0.67 | 0.04 | 84 | 1017.9 |
| 20260830125127 | 61 | 119 | 0.0 | 2.0 | 0.01 | 0.67 | 0.04 | 80 | 1017.9 |
| 20260830124637 | 61 | 104 | 1.0 | 2.0 | 0.02 | 0.67 | 0.04 | 82 | 1017.8 |
| 20260830124119 | 61 | 87 | 0.0 | 3.0 | 0.03 | 0.67 | 0.04 | 79 | 1017.9 |
| 20260830123642 | 61 | 54 | 1.0 | 3.0 | 0.04 | 0.67 | 0.04 | 77 | 1017.6 |
| 20260830123128 | 61 | 105 | 1.0 | 3.0 | 0.04 | 0.67 | 0.04 | 78 | 1017.5 |
| 20260830122630 | 61 | 64 | 1.0 | 3.0 | 0.03 | 0.66 | 0.03 | 75 | 1017.7 |
| 20260830122112 | 61 | 60 | 0.0 | 4.0 | 0.03 | 0.66 | 0.03 | 77 | 1017.6 |
| 20260830121622 | 60 | 86 | 2.0 | 4.0 | 0.03 | 0.66 | 0.03 | 76 | 1017.6 |
| 20260830121123 | 60 | 25 | 0.0 | 1.0 | 0.03 | 0.66 | 0.03 | 79 | 1017.7 |
| 20260830120625 | 60 | 341 | 0.0 | 3.0 | 0.03 | 0.67 | 0.03 | 79 | 1017.7 |
| 20260830120112 | 60 | 74 | 0.0 | 10.0 | 0.03 | 0.67 | 0.03 | 79 | 1017.5 |
| 20260830115613 | 61 | 161 | 2.0 | 13.0 | 0.03 | 0.67 | 0.03 | 77 | 1018.0 |
| 20260830115114 | 61 | 114 | 4.0 | 8.0 | 0.03 | 0.67 | 0.03 | 77 | 1018.2 |
| 20260830114622 | 62 | 68 | 3.0 | 6.0 | 0.02 | 0.66 | 0.02 | 74 | 1018.0 |
| 20260830114124 | 63 | 136 | 2.0 | 11.0 | 0.01 | 0.65 | 0.01 | 71 | 1018.6 |
| 20260830113633 | 64 | 273 | 6.0 | 11.0 | 0.00 | 0.64 | 0.00 | 69 | 1018.5 |
| 20260830113115 | 65 | 198 | 1.0 | 2.0 | 0.00 | 0.64 | 0.00 | 64 | 1017.7 |
| 20260830112615 | 65 | 260 | 1.0 | 5.0 | 0.00 | 0.64 | 0.00 | 62 | 1016.7 |
| 20260830112118 | 66 | 288 | 3.0 | 11.0 | 0.00 | 0.64 | 0.00 | 61 | 1016.2 |
| 20260830111627 | 66 | 83 | 5.0 | 11.0 | 0.00 | 0.64 | 0.00 | 57 | 1016.5 |
| 20260830111156 | 65 | 56 | 2.0 | 6.0 | 0.00 | 0.64 | 0.00 | 60 | 1016.6 |
| 20260830110615 | 63 | 154 | 1.0 | 2.0 | 0.00 | 0.65 | 0.00 | 67 | 1016.6 |
| 20260830110117 | 63 | 304 | 1.0 | 3.0 | 0.00 | 0.65 | 0.00 | 67 | 1016.8 |
| 20260830105626 | 63 | 288 | 1.0 | 6.0 | 0.00 | 0.65 | 0.00 | 68 | 1016.9 |
| 20260830105126 | 62 | 15 | 1.0 | 2.0 | 0.00 | 0.65 | 0.00 | 68 | 1017.0 |
| 20260830104635 | 62 | 36 | 0.0 | 2.0 | 0.00 | 0.65 | 0.00 | 72 | 1017.0 |
| 20260830104137 | 61 | 40 | 1.0 | 2.0 | 0.00 | 0.65 | 0.00 | 73 | 1017.2 |
| 20260830103623 | 61 | 236 | 0.0 | 2.0 | 0.00 | 0.65 | 0.00 | 73 | 1017.2 |
| 20260830103144 | 61 | 202 | 0.0 | 2.0 | 0.00 | 0.65 | 0.00 | 75 | 1017.3 |
| 20260830102632 | 61 | 154 | 0.0 | 2.0 | 0.00 | 0.65 | 0.00 | 73 | 1017.4 |
| 20260830102113 | 61 | 328 | 0.0 | 1.0 | 0.00 | 0.65 | 0.00 | 75 | 1017.3 |
| 20260830101613 | 61 | 27 | 0.0 | 1.0 | 0.00 | 0.65 | 0.00 | 75 | 1017.3 |
| 20260830101121 | 61 | 27 | 0.0 | 1.0 | 0.00 | 0.65 | 0.00 | 74 | 1017.2 |
| 20260830100619 | 62 | 23 | 0.0 | 2.0 | 0.00 | 0.65 | 0.00 | 74 | 1017.1 |
| 20260830100147 | 62 | 23 | 0.0 | 2.0 | 0.00 | 0.65 | 0.00 | 73 | 1017.0 |
| 20260830095629 | 62 | 84 | 1.0 | 2.0 | 0.00 | 0.65 | 0.00 | 76 | 1017.0 |
| 20260830095111 | 62 | 61 | 0.0 | 2.0 | 0.00 | 0.65 | 0.00 | 75 | 1017.5 |
| 20260830094620 | 62 | 100 | 0.0 | 2.0 | 0.00 | 0.65 | 0.00 | 75 | 1017.7 |
| 20260830094122 | 62 | 77 | 0.0 | 4.0 | 0.00 | 0.65 | 0.00 | 75 | 1018.0 |
| 20260830093625 | 62 | 34 | 1.0 | 4.0 | 0.00 | 0.65 | 0.00 | 76 | 1018.0 |
| 20260830093114 | 62 | 27 | 1.0 | 6.0 | 0.00 | 0.65 | 0.00 | 73 | 1018.0 |
| 20260830092614 | 62 | 76 | 3.0 | 7.0 | 0.00 | 0.65 | 0.00 | 71 | 1018.0 |
| 20260830092115 | 62 | 276 | 1.0 | 8.0 | 0.00 | 0.65 | 0.00 | 74 | 1017.9 |
| 20260830091624 | 62 | 238 | 3.0 | 5.0 | 0.00 | 0.65 | 0.00 | 75 | 1017.7 |
| 20260830091125 | 63 | 104 | 0.0 | 2.0 | 0.00 | 0.65 | 0.00 | 71 | 1017.4 |
| 20260830090628 | 63 | 104 | 0.0 | 3.0 | 0.00 | 0.68 | 0.00 | 69 | 1017.2 |
| 20260830090116 | 62 | 73 | 2.0 | 3.0 | 0.00 | 0.68 | 0.00 | 72 | 1017.0 |
| 20260830085617 | 63 | 96 | 1.0 | 3.0 | 0.00 | 0.68 | 0.00 | 72 | 1017.4 |
| 20260830085117 | 63 | 352 | 0.0 | 6.0 | 0.00 | 0.68 | 0.00 | 71 | 1017.7 |
| 20260830084625 | 64 | 295 | 2.0 | 6.0 | 0.00 | 0.68 | 0.00 | 71 | 1017.5 |
| 20260830084126 | 64 | 335 | 1.0 | 3.0 | 0.00 | 0.68 | 0.00 | 69 | 1017.3 |
| 20260830083636 | 64 | 75 | 0.0 | 6.0 | 0.00 | 0.68 | 0.00 | 70 | 1017.1 |
| 20260830083118 | 64 | 108 | 3.0 | 6.0 | 0.00 | 0.68 | 0.00 | 70 | 1017.0 |
| 20260830082620 | 64 | 105 | 2.0 | 3.0 | 0.00 | 0.68 | 0.00 | 70 | 1017.3 |
| 20260830082148 | 64 | 297 | 0.0 | 3.0 | 0.00 | 0.68 | 0.00 | 68 | 1017.8 |
| 20260830081627 | 64 | 297 | 0.0 | 4.0 | 0.00 | 0.68 | 0.00 | 68 | 1017.5 |
| 20260830081135 | 64 | 330 | 0.0 | 6.0 | 0.00 | 0.68 | 0.00 | 68 | 1017.4 |
| 20260830080617 | 63 | 346 | 0.0 | 2.0 | 0.00 | 0.68 | 0.00 | 72 | 1017.7 |
| 20260830080118 | 64 | 81 | 0.0 | 3.0 | 0.00 | 0.68 | 0.00 | 71 | 1017.1 |
| 20260830075626 | 64 | 60 | 1.0 | 3.0 | 0.00 | 0.68 | 0.00 | 70 | 1016.9 |
| 20260830075128 | 64 | 9 | 0.0 | 3.0 | 0.00 | 0.68 | 0.00 | 69 | 1017.6 |
| 20260830074638 | 64 | 290 | 2.0 | 3.0 | 0.00 | 0.68 | 0.00 | 71 | 1017.7 |
| 20260830074118 | 64 | 2 | 0.0 | 2.0 | 0.00 | 0.68 | 0.00 | 71 | 1017.4 |
| 20260830073619 | 64 | 4 | 1.0 | 2.0 | 0.00 | 0.68 | 0.00 | 71 | 1017.3 |
| 20260830073127 | 64 | 37 | 0.0 | 2.0 | 0.00 | 0.68 | 0.00 | 72 | 1017.4 |
| 20260830072630 | 64 | 80 | 0.0 | 3.0 | 0.00 | 0.68 | 0.00 | 70 | 1017.5 |
| 20260830072137 | 64 | 32 | 0.0 | 3.0 | 0.00 | 0.68 | 0.00 | 70 | 1017.5 |
| 20260830071618 | 64 | 53 | 0.0 | 1.0 | 0.00 | 0.68 | 0.00 | 67 | 1017.8 |
| 20260830071120 | 64 | 139 | 0.0 | 1.0 | 0.00 | 0.68 | 0.00 | 65 | 1018.0 |
| 20260830070621 | 64 | 139 | 0.0 | 2.0 | 0.00 | 0.68 | 0.00 | 64 | 1017.8 |
| 20260830070127 | 65 | 139 | 0.0 | 4.0 | 0.00 | 0.68 | 0.00 | 62 | 1017.3 |
| 20260830065636 | 65 | 118 | 1.0 | 6.0 | 0.00 | 0.68 | 0.00 | 62 | 1017.0 |
| 20260830065117 | 65 | 152 | 1.0 | 5.0 | 0.00 | 0.68 | 0.00 | 60 | 1016.9 |
| 20260830064618 | 66 | 274 | 0.0 | 1.0 | 0.00 | 0.68 | 0.00 | 60 | 1016.7 |
| 20260830064147 | 66 | 124 | 0.0 | 2.0 | 0.00 | 0.68 | 0.00 | 60 | 1016.3 |
| 20260830063654 | 67 | 129 | 1.0 | 2.0 | 0.00 | 0.68 | 0.00 | 59 | 1016.0 |
| 20260830063135 | 67 | 138 | 1.0 | 2.0 | 0.00 | 0.68 | 0.00 | 56 | 1016.0 |
| 20260830062623 | 67 | 31 | 1.0 | 4.0 | 0.00 | 0.68 | 0.00 | 54 | 1016.2 |
| 20260830062146 | 67 | 300 | 1.0 | 4.0 | 0.00 | 0.68 | 0.00 | 55 | 1016.4 |
| 20260830061632 | 67 | 319 | 0.0 | 2.0 | 0.01 | 0.68 | 0.00 | 59 | 1016.3 |
| 20260830061113 | 68 | 98 | 0.0 | 4.0 | 0.01 | 0.68 | 0.68 | 55 | 1015.9 |
| 20260830060614 | 68 | 89 | 2.0 | 4.0 | 0.02 | 0.68 | 0.68 | 53 | 1016.0 |
| 20260830060121 | 68 | 131 | 3.0 | 4.0 | 0.02 | 0.68 | 0.68 | 53 | 1016.2 |
| 20260830055623 | 68 | 18 | 0.0 | 2.0 | 0.02 | 0.68 | 0.68 | 55 | 1016.2 |
| 20260830055125 | 68 | 278 | 1.0 | 7.0 | 0.02 | 0.68 | 0.68 | 50 | 1016.1 |
| 20260830054614 | 69 | 360 | 2.0 | 13.0 | 0.02 | 0.68 | 0.68 | 50 | 1015.7 |
| 20260830054115 | 69 | 81 | 6.0 | 17.0 | 0.02 | 0.68 | 0.68 | 49 | 1015.8 |
| 20260830053617 | 68 | 90 | 5.0 | 17.0 | 0.02 | 0.68 | 0.68 | 51 | 1015.5 |
| 20260830053126 | 68 | 63 | 6.0 | 14.0 | 0.02 | 0.68 | 0.68 | 52 | 1015.3 |
| 20260830052626 | 68 | 123 | 7.0 | 19.0 | 0.02 | 0.68 | 0.68 | 52 | 1015.6 |
| 20260830052115 | 66 | 134 | 6.0 | 31.0 | 0.02 | 0.68 | 0.68 | 56 | 1016.0 |
| 20260830051615 | 66 | 128 | 12.0 | 31.0 | 0.01 | 0.67 | 0.67 | 58 | 1017.2 |
| 20260830051116 | 67 | 158 | 14.0 | 25.0 | 0.01 | 0.67 | 0.67 | 59 | 1017.9 |
| 20260830050626 | 67 | 131 | 13.0 | 22.0 | 0.01 | 0.66 | 0.66 | 60 | 1017.8 |
| 20260830050128 | 68 | 153 | 9.0 | 20.0 | 0.01 | 0.66 | 0.66 | 58 | 1018.6 |
| 20260830045638 | 69 | 143 | 7.0 | 21.0 | 0.01 | 0.66 | 0.66 | 57 | 1018.7 |
| 20260830045119 | 68 | 213 | 9.0 | 21.0 | 0.01 | 0.66 | 0.66 | 56 | 1017.7 |
| 20260830044617 | 67 | 129 | 7.0 | 14.0 | 0.01 | 0.66 | 0.66 | 59 | 1017.3 |
| 20260830044119 | 66 | 170 | 3.0 | 8.0 | 0.01 | 0.66 | 0.66 | 67 | 1017.5 |
| 20260830043628 | 65 | 214 | 1.0 | 4.0 | 0.01 | 0.66 | 0.66 | 70 | 1017.5 |
| 20260830043130 | 65 | 124 | 1.0 | 2.0 | 0.01 | 0.66 | 0.66 | 70 | 1017.3 |
| 20260830042638 | 66 | 328 | 0.0 | 2.0 | 0.01 | 0.66 | 0.66 | 69 | 1017.4 |
| 20260830042117 | 66 | 297 | 1.0 | 5.0 | 0.01 | 0.66 | 0.66 | 67 | 1017.2 |
| 20260830041646 | 66 | 149 | 1.0 | 6.0 | 0.01 | 0.66 | 0.66 | 66 | 1016.8 |
| 20260830041125 | 66 | 77 | 3.0 | 4.0 | 0.01 | 0.66 | 0.66 | 67 | 1017.2 |
| 20260830040634 | 66 | 51 | 1.0 | 2.0 | 0.00 | 0.65 | 0.65 | 68 | 1017.8 |
| 20260830040115 | 67 | 186 | 0.0 | 5.0 | 0.00 | 0.65 | 0.65 | 68 | 1017.7 |
| 20260830035618 | 67 | 84 | 1.0 | 5.0 | 0.00 | 0.65 | 0.65 | 65 | 1017.3 |
| 20260830035127 | 67 | 203 | 1.0 | 6.0 | 0.00 | 0.65 | 0.65 | 64 | 1017.2 |
| 20260830034627 | 67 | 100 | 3.0 | 6.0 | 0.00 | 0.65 | 0.65 | 65 | 1017.1 |
| 20260830034155 | 66 | 134 | 2.0 | 8.0 | 0.00 | 0.65 | 0.65 | 65 | 1017.0 |
| 20260830033616 | 66 | 126 | 4.0 | 8.0 | 0.00 | 0.65 | 0.65 | 68 | 1016.7 |
| 20260830033138 | 66 | 322 | 0.0 | 1.0 | 0.00 | 0.65 | 0.65 | 70 | 1016.3 |
| 20260830032625 | 66 | 333 | 0.0 | 2.0 | 0.00 | 0.65 | 0.65 | 71 | 1016.0 |
| 20260830032126 | 66 | 333 | 1.0 | 2.0 | 0.00 | 0.65 | 0.65 | 71 | 1015.8 |
| 20260830031636 | 66 | 266 | 1.0 | 3.0 | 0.00 | 0.65 | 0.65 | 70 | 1015.5 |
| 20260830031117 | 67 | 311 | 1.0 | 3.0 | 0.00 | 0.65 | 0.65 | 66 | 1015.3 |
| 20260830030618 | 67 | 279 | 1.0 | 3.0 | 0.00 | 0.65 | 0.65 | 65 | 1015.2 |
| 20260830030127 | 67 | 148 | 0.0 | 0.0 | 0.00 | 0.65 | 0.65 | 61 | 1015.1 |
| 20260830025648 | 67 | 148 | 0.0 | 0.0 | 0.00 | 0.65 | 0.65 | 62 | 1015.0 |
| 20260830025136 | 67 | 148 | 0.0 | 1.0 | 0.00 | 0.65 | 0.65 | 60 | 1014.9 |
| 20260830024618 | 68 | 148 | 0.0 | 1.0 | 0.00 | 0.65 | 0.65 | 61 | 1014.9 |
| 20260830024118 | 68 | 67 | 0.0 | 1.0 | 0.00 | 0.65 | 0.65 | 61 | 1014.8 |
| 20260830023627 | 68 | 67 | 0.0 | 2.0 | 0.00 | 0.65 | 0.65 | 61 | 1014.8 |
| 20260830023155 | 69 | 67 | 0.0 | 2.0 | 0.00 | 0.65 | 0.65 | 60 | 1014.9 |
| 20260830022614 | 70 | 271 | 1.0 | 4.0 | 0.01 | 0.65 | 0.65 | 60 | 1014.8 |
| 20260830022116 | 71 | 159 | 1.0 | 5.0 | 0.01 | 0.65 | 0.65 | 48 | 1014.8 |
| 20260830021625 | 70 | 90 | 2.0 | 5.0 | 0.01 | 0.65 | 0.65 | 50 | 1014.8 |
| 20260830021125 | 68 | 97 | 1.0 | 3.0 | 0.01 | 0.65 | 0.65 | 61 | 1014.9 |
| 20260830020653 | 67 | 338 | 0.0 | 4.0 | 0.01 | 0.65 | 0.65 | 70 | 1015.1 |
| 20260830020114 | 68 | 61 | 2.0 | 4.0 | 0.01 | 0.65 | 0.65 | 71 | 1015.9 |
| 20260830015615 | 67 | 101 | 2.0 | 4.0 | 0.01 | 0.65 | 0.65 | 69 | 1016.4 |
| 20260830015123 | 67 | 131 | 1.0 | 5.0 | 0.01 | 0.65 | 0.65 | 70 | 1016.9 |
| 20260830014645 | 67 | 131 | 2.0 | 6.0 | 0.01 | 0.65 | 0.65 | 72 | 1017.0 |
| 20260830014132 | 67 | 213 | 2.0 | 10.0 | 0.01 | 0.65 | 0.65 | 73 | 1017.4 |
| 20260830013613 | 68 | 103 | 4.0 | 9.0 | 0.01 | 0.65 | 0.65 | 73 | 1017.8 |
| 20260830013113 | 68 | 175 | 6.0 | 9.0 | 0.01 | 0.65 | 0.65 | 69 | 1017.5 |
| 20260830012642 | 69 | 136 | 2.0 | 4.0 | 0.00 | 0.64 | 0.64 | 68 | 1017.7 |
| 20260830012123 | 69 | 126 | 1.0 | 4.0 | 0.00 | 0.64 | 0.64 | 66 | 1017.4 |
| 20260830011632 | 70 | 291 | 0.0 | 1.0 | 0.00 | 0.64 | 0.64 | 66 | 1017.2 |
| 20260830011140 | 70 | 291 | 0.0 | 1.0 | 0.00 | 0.64 | 0.64 | 65 | 1016.8 |
| 20260830010619 | 70 | 291 | 0.0 | 0.0 | 0.00 | 0.64 | 0.64 | 62 | 1016.8 |
| 20260830010119 | 70 | 291 | 0.0 | 2.0 | 0.00 | 0.64 | 0.64 | 61 | 1016.8 |
| 20260830005628 | 71 | 291 | 0.0 | 2.0 | 0.00 | 0.64 | 0.64 | 62 | 1016.6 |
| 20260830005136 | 71 | 285 | 1.0 | 2.0 | 0.00 | 0.64 | 0.64 | 60 | 1016.5 |
| 20260830004618 | 72 | 280 | 0.0 | 1.0 | 0.00 | 0.64 | 0.64 | 58 | 1016.5 |
| 20260830004118 | 73 | 266 | 0.0 | 4.0 | 0.00 | 0.64 | 0.64 | 56 | 1016.3 |
| 20260830003619 | 73 | 129 | 1.0 | 4.0 | 0.00 | 0.64 | 0.64 | 49 | 1016.5 |
| 20260830003128 | 73 | 65 | 1.0 | 5.0 | 0.00 | 0.64 | 0.64 | 49 | 1016.5 |
| 20260830002630 | 73 | 105 | 2.0 | 6.0 | 0.00 | 0.64 | 0.64 | 49 | 1016.5 |
| 20260830002111 | 73 | 94 | 2.0 | 6.0 | 0.00 | 0.64 | 0.64 | 50 | 1016.7 |
| 20260830001619 | 72 | 136 | 2.0 | 6.0 | 0.00 | 0.64 | 0.64 | 52 | 1016.7 |
| 20260830001141 | 72 | 136 | 3.0 | 6.0 | 0.00 | 0.64 | 0.64 | 56 | 1016.7 |